TimeCDT,TemperatureF,Dew PointF,Humidity,Sea Level PressureIn,VisibilityMPH,Wind Direction,Wind SpeedMPH,Gust SpeedMPH,PrecipitationIn,Events,Conditions,WindDirDegrees,DateUTC
12:15 AM,37.0,27.3,68,30.06,10.0,West,9.2,-,N/A,,Clear,270,2013-10-27 05:15:00
12:35 AM,36.9,27.1,68,30.05,10.0,West,8.1,-,N/A,,Clear,270,2013-10-27 05:35:00
12:55 AM,36.3,26.8,68,30.04,10.0,West,8.1,-,N/A,,Clear,270,2013-10-27 05:55:00
1:15 AM,38.7,26.6,62,30.04,10.0,West,9.2,-,N/A,,Clear,280,2013-10-27 06:15:00
1:35 AM,36.7,26.6,67,30.03,10.0,West,5.8,-,N/A,,Clear,260,2013-10-27 06:35:00
1:55 AM,36.1,26.6,68,30.04,10.0,West,6.9,-,N/A,,Clear,280,2013-10-27 06:55:00
2:15 AM,32.9,25.5,74,30.03,10.0,WSW,6.9,-,N/A,,Clear,250,2013-10-27 07:15:00
2:35 AM,35.1,27.0,72,30.03,10.0,West,11.5,-,N/A,,Clear,260,2013-10-27 07:35:00
2:55 AM,34.0,26.8,75,30.02,10.0,West,12.7,-,N/A,,Clear,260,2013-10-27 07:55:00
3:15 AM,33.8,26.6,75,30.02,10.0,West,12.7,-,N/A,,Clear,260,2013-10-27 08:15:00
3:35 AM,33.8,27.0,76,30.01,10.0,West,11.5,-,N/A,,Clear,260,2013-10-27 08:35:00
3:55 AM,33.4,26.8,77,30.01,10.0,WSW,10.4,-,N/A,,Clear,250,2013-10-27 08:55:00
4:15 AM,34.2,27.0,75,30.01,10.0,West,11.5,-,N/A,,Clear,270,2013-10-27 09:15:00
4:35 AM,33.8,26.8,75,30.01,10.0,West,10.4,-,N/A,,Clear,260,2013-10-27 09:35:00
4:55 AM,33.8,27.0,76,30.01,10.0,West,10.4,-,N/A,,Clear,260,2013-10-27 09:55:00
5:15 AM,32.5,28.2,84,30.00,10.0,WSW,8.1,-,N/A,,Clear,240,2013-10-27 10:15:00
5:35 AM,32.0,26.8,81,30.00,10.0,SW,6.9,-,N/A,,Clear,230,2013-10-27 10:35:00
5:55 AM,30.9,28.8,92,30.01,10.0,SW,6.9,-,N/A,,Clear,230,2013-10-27 10:55:00
6:15 AM,30.4,29.1,95,30.00,10.0,SW,6.9,-,N/A,,Clear,230,2013-10-27 11:15:00
6:35 AM,29.3,28.9,99,30.01,10.0,SW,6.9,-,N/A,,Clear,230,2013-10-27 11:35:00
6:55 AM,31.3,30.4,96,30.01,10.0,SW,6.9,-,N/A,,Clear,230,2013-10-27 11:55:00
7:15 AM,31.1,29.3,93,30.01,10.0,SW,5.8,-,N/A,,Clear,220,2013-10-27 12:15:00
7:35 AM,29.7,29.3,99,30.02,10.0,SSW,5.8,-,N/A,,Clear,210,2013-10-27 12:35:00
7:55 AM,29.1,28.9,99,30.01,10.0,SSW,6.9,-,N/A,,Clear,210,2013-10-27 12:55:00
8:15 AM,30.7,30.4,99,30.01,10.0,SW,6.9,-,N/A,,Clear,230,2013-10-27 13:15:00
8:35 AM,34.0,31.5,90,30.01,10.0,SW,6.9,-,N/A,,Clear,220,2013-10-27 13:35:00
8:55 AM,36.3,29.1,75,30.01,10.0,SW,9.2,-,N/A,,Clear,230,2013-10-27 13:55:00
9:15 AM,37.6,29.3,72,30.02,10.0,WSW,11.5,-,N/A,,Clear,240,2013-10-27 14:15:00
9:35 AM,39.0,29.8,70,30.01,10.0,WSW,11.5,-,N/A,,Clear,240,2013-10-27 14:35:00
9:55 AM,41.0,30.2,65,30.02,10.0,WSW,11.5,16.1,N/A,,Clear,240,2013-10-27 14:55:00
10:15 AM,43.2,29.5,59,30.01,10.0,WSW,13.8,-,N/A,,Clear,240,2013-10-27 15:15:00
10:35 AM,44.6,29.3,55,30.01,10.0,WSW,12.7,18.4,N/A,,Clear,240,2013-10-27 15:35:00
10:55 AM,45.9,29.8,54,30.00,10.0,SW,11.5,-,N/A,,Clear,230,2013-10-27 15:55:00
11:15 AM,46.8,28.0,48,30.00,10.0,WSW,17.3,24.2,N/A,,Clear,240,2013-10-27 16:15:00
11:35 AM,47.3,27.5,46,30.00,10.0,WSW,19.6,26.5,N/A,,Clear,250,2013-10-27 16:35:00
11:55 AM,48.7,28.6,46,30.00,10.0,WSW,19.6,-,N/A,,Clear,240,2013-10-27 16:55:00
12:15 PM,48.6,28.2,45,29.99,10.0,WSW,16.1,-,N/A,,Clear,250,2013-10-27 17:15:00
12:35 PM,49.3,28.4,45,29.98,10.0,WSW,18.4,23.0,N/A,,Clear,250,2013-10-27 17:35:00
12:55 PM,50.2,28.8,44,29.97,10.0,WSW,13.8,21.9,N/A,,Clear,240,2013-10-27 17:55:00
1:15 PM,50.4,28.9,44,29.95,10.0,SW,17.3,-,N/A,,Clear,220,2013-10-27 18:15:00
1:35 PM,51.3,28.9,42,29.94,10.0,SW,16.1,19.6,N/A,,Clear,220,2013-10-27 18:35:00
1:55 PM,52.2,28.9,41,29.94,10.0,SW,13.8,21.9,N/A,,Clear,220,2013-10-27 18:55:00
2:15 PM,52.5,27.9,39,29.93,10.0,SW,16.1,21.9,N/A,,Clear,230,2013-10-27 19:15:00
2:35 PM,53.1,28.9,40,29.93,10.0,SSW,16.1,20.7,N/A,,Clear,210,2013-10-27 19:35:00
2:55 PM,53.2,28.0,38,29.92,10.0,SSW,13.8,21.9,N/A,,Clear,200,2013-10-27 19:55:00
3:15 PM,53.2,27.1,37,29.92,10.0,SW,13.8,25.3,N/A,,Clear,230,2013-10-27 20:15:00
3:35 PM,53.6,27.5,37,29.92,10.0,SW,19.6,-,N/A,,Clear,230,2013-10-27 20:35:00
3:55 PM,54.0,28.2,37,29.92,10.0,SSW,18.4,21.9,N/A,,Clear,210,2013-10-27 20:55:00
4:15 PM,54.0,27.9,37,29.92,10.0,SW,16.1,21.9,N/A,,Clear,220,2013-10-27 21:15:00
4:35 PM,53.6,27.3,36,29.92,10.0,SW,15.0,19.6,N/A,,Clear,220,2013-10-27 21:35:00
4:55 PM,52.7,27.5,38,29.91,10.0,SSW,12.7,-,N/A,,Clear,200,2013-10-27 21:55:00
5:15 PM,52.2,27.9,39,29.91,10.0,SSW,12.7,18.4,N/A,,Clear,200,2013-10-27 22:15:00
5:35 PM,50.9,28.0,41,29.91,10.0,SSW,12.7,-,N/A,,Clear,200,2013-10-27 22:35:00
5:55 PM,49.1,28.4,45,29.91,10.0,SSW,10.4,-,N/A,,Clear,210,2013-10-27 22:55:00
6:15 PM,47.3,28.4,48,29.92,10.0,SSW,11.5,-,N/A,,Clear,200,2013-10-27 23:15:00
6:35 PM,46.0,29.1,52,29.92,10.0,South,9.2,-,N/A,,Clear,190,2013-10-27 23:35:00
6:55 PM,44.6,29.3,55,29.92,10.0,SSW,10.4,-,N/A,,Clear,200,2013-10-27 23:55:00
7:15 PM,44.8,29.3,55,29.92,10.0,SSW,11.5,-,N/A,,Clear,200,2013-10-28 00:15:00
7:35 PM,44.6,29.3,55,29.93,10.0,SSW,9.2,-,N/A,,Clear,210,2013-10-28 00:35:00
7:55 PM,44.2,28.9,55,29.94,10.0,SSW,9.2,-,N/A,,Clear,200,2013-10-28 00:55:00
8:15 PM,43.2,29.1,58,29.95,10.0,SSW,8.1,-,N/A,,Clear,200,2013-10-28 01:15:00
8:35 PM,42.4,28.9,59,29.96,10.0,SSW,8.1,-,N/A,,Clear,200,2013-10-28 01:35:00
8:55 PM,42.8,28.9,58,29.97,10.0,SSW,5.8,-,N/A,,Clear,210,2013-10-28 01:55:00
9:15 PM,43.7,28.8,56,29.99,10.0,WSW,6.9,-,N/A,,Scattered Clouds,240,2013-10-28 02:15:00
9:35 PM,44.2,28.8,55,30.00,10.0,WSW,8.1,-,N/A,,Scattered Clouds,250,2013-10-28 02:35:00
9:55 PM,42.4,28.9,59,30.00,10.0,WSW,3.5,-,N/A,,Mostly Cloudy,250,2013-10-28 02:55:00
10:15 PM,43.0,29.1,58,30.00,10.0,SW,3.5,-,N/A,,Overcast,230,2013-10-28 03:15:00
10:35 PM,43.5,29.1,57,30.01,10.0,Calm,Calm,-,N/A,,Mostly Cloudy,0,2013-10-28 03:35:00
10:55 PM,42.3,29.1,60,30.01,10.0,South,4.6,-,N/A,,Scattered Clouds,190,2013-10-28 03:55:00
11:15 PM,40.8,29.1,63,30.01,10.0,SSW,4.6,-,N/A,,Clear,200,2013-10-28 04:15:00
11:35 PM,38.8,29.1,68,30.02,10.0,SSW,5.8,-,N/A,,Clear,200,2013-10-28 04:35:00
11:55 PM,38.8,29.1,68,30.02,10.0,SSW,5.8,-,N/A,,Clear,200,2013-10-28 04:55:00